Weather History for Gaylord, MI

Change the Weather History Date:

Sunday, May 12, 2013

  Actual Average Record
Temperature  
Mean Temperature 32 °F -  
Max Temperature 35 °F 65 °F 84 °F (1991)
Min Temperature 30 °F 39 °F 27 °F (1963)
Degree Days  
Heating Degree Days 32    
Moisture  
Dew Point 28 °F    
Average Humidity 84    
Maximum Humidity 96    
Minimum Humidity 61    
Precipitation  
Precipitation 0.15 in - - ()
Sea Level Pressure  
Sea Level Pressure 29.83 in    
Wind  
Wind Speed 11 mph (WNW)    
Max Wind Speed 20 mph    
Max Gust Speed 34 mph    
Visibility 5 miles    
Events Fog , Rain , Snow    
Averages and records for this station are not official NWS values.
T = Trace of Precipitation, MM = Missing Value Source: NWS Daily Summary

Daily Weather History Graph

Daily Weather History Graph

Search for Another Location

Airport:

Trip Planner

Search our weather history database for the weather conditions in past years. The results will help you decide how hot, cold, wet, or windy it might be!

Date:

Astronomy

May. 12, 2013 Rise Set
Actual Time 6:12 AM EDT 8:58 PM EDT
Civil Twilight 5:39 AM EDT 9:32 PM EDT
Nautical Twilight 4:56 AM EDT 10:15 PM EDT
Astronomical Twilight 4:06 AM EDT 11:05 PM EDT
Moon 8:05 AM EDT (5/12) 11:25 PM EDT (5/12)
Length of Visible Light 15h 52m
Length of Day
14h 45m
Waxing Crescent, 6% of the Moon is Illuminated
May 12
Waxing Crescent
May 18
First Quarter
May 25
Full
May 31
Last Quarter
Jun 8
New

Hourly Weather History & Observations

Time (EDT) Temp. Windchill Dew Point Humidity Pressure Visibility Wind Dir Wind Speed Gust Speed Precip Events Conditions
12:19 AM 35.6 °F 31.7 °F 32.0 °F 87% 29.73 in 8.0 mi WNW 4.6 mph - 0.00 in Snow Light Snow
12:42 AM 33.8 °F 27.7 °F 32.0 °F 93% 29.74 in 2.5 mi WNW 6.9 mph - 0.01 in Snow Light Snow
12:53 AM 34.0 °F 26.6 °F 32.0 °F 92% 29.76 in 7.0 mi WNW 9.2 mph 23.0 mph 0.02 in Snow Light Snow
1:53 AM 34.0 °F 26.0 °F 30.9 °F 89% 29.76 in 7.0 mi West 10.4 mph 29.9 mph 0.00 in Snow Light Snow
2:07 AM 33.8 °F 25.8 °F 32.0 °F 93% 29.72 in 2.5 mi West 10.4 mph 17.3 mph 0.00 in Snow Light Snow
2:11 AM 33.8 °F 26.4 °F 32.0 °F 93% 29.72 in 2.0 mi West 9.2 mph - 0.00 in Snow Light Snow
2:15 AM 33.8 °F 24.8 °F 32.0 °F 93% 29.72 in 3.0 mi West 12.7 mph 18.4 mph 0.00 in Snow Light Snow
2:24 AM 33.8 °F 24.8 °F 32.0 °F 93% 29.72 in 2.5 mi West 12.7 mph 20.7 mph 0.00 in Snow Light Snow
2:33 AM 33.8 °F 23.9 °F 30.2 °F 87% 29.72 in 6.0 mi West 15.0 mph 20.7 mph 0.00 in Snow Light Snow
2:53 AM 34.0 °F 24.6 °F 30.9 °F 89% 29.75 in 8.0 mi West 13.8 mph 25.3 mph 0.00 in Snow Light Snow
3:30 AM 33.8 °F 24.8 °F 30.2 °F 87% 29.70 in 1.8 mi West 12.7 mph 26.5 mph 0.01 in Snow Light Snow
3:53 AM 32.0 °F 22.5 °F 30.9 °F 96% 29.75 in 0.5 mi West 12.7 mph 21.9 mph 0.02 in Fog , Snow Snow
4:18 AM 32.0 °F 23.0 °F 30.2 °F 93% 29.70 in 1.0 mi West 11.5 mph 21.9 mph 0.01 in Snow Light Snow
4:31 AM 32.0 °F 23.6 °F 30.2 °F 93% 29.70 in 0.8 mi West 10.4 mph 21.9 mph 0.02 in Snow Light Snow
4:53 AM 32.0 °F 23.6 °F 30.9 °F 96% 29.75 in 0.8 mi WNW 10.4 mph 24.2 mph 0.04 in Snow Light Snow
5:19 AM 32.0 °F 22.1 °F 30.2 °F 93% 29.72 in 1.0 mi WNW 13.8 mph 24.2 mph 0.01 in Snow Light Snow
5:53 AM 32.0 °F 23.6 °F 30.9 °F 96% 29.78 in 1.2 mi WNW 10.4 mph 21.9 mph 0.02 in Snow Light Snow
6:22 AM 32.0 °F 24.2 °F 30.2 °F 93% 29.75 in 1.5 mi NW 9.2 mph 24.2 mph 0.01 in Snow Light Snow
6:44 AM 32.0 °F 23.0 °F 30.2 °F 93% 29.76 in 3.0 mi NW 11.5 mph 24.2 mph 0.02 in Snow Light Snow
6:53 AM 32.0 °F 23.6 °F 30.0 °F 92% 29.81 in 4.0 mi NW 10.4 mph 23.0 mph 0.02 in Snow Light Snow
6:55 AM 32.0 °F 23.0 °F 30.2 °F 93% 29.76 in 2.0 mi NW 11.5 mph 23.0 mph 0.00 in Snow Light Snow
7:02 AM 32.0 °F 21.6 °F 30.2 °F 93% 29.77 in 1.0 mi WNW 15.0 mph 24.2 mph 0.00 in Snow Light Snow
7:13 AM 32.0 °F 24.2 °F 30.2 °F 93% 29.77 in 3.0 mi NW 9.2 mph 24.2 mph 0.00 in Snow Light Snow
7:21 AM 32.0 °F 24.2 °F 30.2 °F 93% 29.77 in 2.5 mi NW 9.2 mph 18.4 mph 0.00 in Snow Light Snow
7:26 AM 32.0 °F 22.5 °F 28.4 °F 87% 29.78 in 3.0 mi NW 12.7 mph 23.0 mph 0.00 in Snow Light Snow
7:53 AM 32.0 °F 23.6 °F 28.9 °F 88% 29.83 in 7.0 mi WNW 10.4 mph 18.4 mph 0.00 in   Overcast
7:57 AM 32.0 °F 22.5 °F 28.4 °F 87% 29.78 in 1.2 mi NW 12.7 mph 23.0 mph 0.00 in Snow Light Snow
8:05 AM 30.2 °F 21.9 °F 28.4 °F 93% 29.78 in 0.5 mi WNW 9.2 mph 19.6 mph 0.01 in Fog , Snow Light Snow
8:11 AM 32.0 °F 25.6 °F 28.4 °F 87% 29.79 in 2.0 mi Variable 6.9 mph 19.6 mph 0.01 in Snow Light Snow
8:14 AM 32.0 °F 26.4 °F 30.2 °F 93% 29.79 in 3.0 mi Variable 5.8 mph 16.1 mph 0.01 in Snow Light Snow
8:24 AM 32.0 °F 20.8 °F 28.4 °F 87% 29.79 in 1.2 mi NW 17.3 mph 25.3 mph 0.01 in Snow Light Snow
8:29 AM 32.0 °F 22.1 °F 28.4 °F 87% 29.79 in 0.8 mi WNW 13.8 mph 25.3 mph 0.01 in Snow Light Snow
8:35 AM 32.0 °F 22.1 °F 28.4 °F 87% 29.79 in 2.5 mi NW 13.8 mph 26.5 mph 0.01 in Snow Light Snow
8:42 AM 33.8 °F 25.8 °F 28.4 °F 81% 29.79 in 8.0 mi WNW 10.4 mph 26.5 mph 0.01 in   Overcast
8:44 AM 33.8 °F 27.0 °F 28.4 °F 81% 29.79 in 4.0 mi WNW 8.1 mph 23.0 mph 0.01 in Snow Light Snow
8:46 AM 32.0 °F 23.6 °F 28.4 °F 87% 29.79 in 1.2 mi WNW 10.4 mph 19.6 mph 0.01 in Snow Light Snow
8:53 AM 30.9 °F 19.1 °F 30.0 °F 96% 29.84 in 0.5 mi WNW 18.4 mph 31.1 mph 0.01 in Fog , Snow Snow
9:07 AM 32.0 °F 21.6 °F 28.4 °F 87% 29.80 in 2.0 mi NW 15.0 mph 27.6 mph 0.01 in Snow Light Snow
9:12 AM 32.0 °F 22.1 °F 28.4 °F 87% 29.80 in 1.8 mi NW 13.8 mph 27.6 mph 0.01 in Snow Light Snow
9:15 AM 32.0 °F 22.1 °F 28.4 °F 87% 29.80 in 0.8 mi WNW 13.8 mph 27.6 mph 0.01 in Snow Light Snow
9:25 AM 32.0 °F 20.8 °F 28.4 °F 87% 29.81 in 1.0 mi WNW 17.3 mph 28.8 mph 0.01 in Snow Light Snow
9:39 AM 32.0 °F 22.1 °F 28.4 °F 87% 29.81 in 3.0 mi WNW 13.8 mph 27.6 mph 0.01 in Snow Light Snow
9:53 AM 32.0 °F 23.0 °F 28.0 °F 85% 29.86 in 6.0 mi WNW 11.5 mph 32.2 mph 0.01 in Snow Light Snow
10:19 AM 30.2 °F 19.8 °F 26.6 °F 86% 29.82 in 1.5 mi NW 13.8 mph 25.3 mph 0.00 in Snow Light Snow
10:33 AM 32.0 °F 20.8 °F 26.6 °F 80% 29.82 in 3.0 mi NW 17.3 mph 33.4 mph 0.00 in Snow Light Snow
10:39 AM 32.0 °F 23.6 °F 26.6 °F 80% 29.82 in 2.0 mi WNW 10.4 mph 32.2 mph 0.01 in Snow Light Snow
10:44 AM 32.0 °F 23.0 °F 28.4 °F 87% 29.83 in 1.5 mi WNW 11.5 mph 29.9 mph 0.01 in Snow Light Snow
10:49 AM 32.0 °F 20.1 °F 26.6 °F 80% 29.82 in 3.0 mi WNW 19.6 mph 34.5 mph 0.01 in Snow Light Snow
10:53 AM 32.0 °F 20.8 °F 27.0 °F 82% 29.87 in 8.0 mi WNW 17.3 mph 34.5 mph 0.01 in   Overcast
11:53 AM 30.9 °F 21.2 °F 25.0 °F 79% 29.90 in 10.0 mi WNW 12.7 mph 26.5 mph 0.00 in   Overcast
12:36 PM 32.0 °F 22.1 °F 24.8 °F 75% 29.87 in 10.0 mi WNW 13.8 mph 31.1 mph 0.00 in   Overcast
12:53 PM 32.0 °F 21.2 °F 25.0 °F 75% 29.91 in 10.0 mi WNW 16.1 mph 29.9 mph 0.00 in   Overcast
1:05 PM 33.8 °F 24.3 °F 24.8 °F 70% 29.87 in 10.0 mi WNW 13.8 mph 26.5 mph N/A   Overcast
1:17 PM 33.8 °F 23.9 °F 24.8 °F 70% 29.88 in 10.0 mi WNW 15.0 mph 28.8 mph N/A   Overcast
1:53 PM 33.1 °F 24.4 °F 24.1 °F 70% 29.93 in 10.0 mi WNW 11.5 mph 29.9 mph 0.00 in Rain Light Rain
2:29 PM 33.8 °F 23.2 °F 23.0 °F 65% 29.89 in 10.0 mi WNW 17.3 mph 29.9 mph 0.00 in   Overcast
2:53 PM 33.1 °F 23.9 °F 21.9 °F 64% 29.94 in 10.0 mi WNW 12.7 mph 29.9 mph 0.00 in   Overcast
3:53 PM 34.0 °F 24.6 °F 23.0 °F 64% 29.96 in 10.0 mi WNW 13.8 mph 24.2 mph 0.00 in   Overcast
4:53 PM 34.0 °F 26.0 °F 21.9 °F 61% 29.98 in 10.0 mi WNW 10.4 mph 28.8 mph 0.00 in   Overcast
5:53 PM 34.0 °F 25.5 °F 23.0 °F 64% 30.00 in 10.0 mi WNW 11.5 mph 24.2 mph 0.00 in   Overcast
6:53 PM 33.1 °F 24.9 °F 24.1 °F 70% 30.03 in 9.0 mi WNW 10.4 mph 25.3 mph 0.00 in   Overcast
7:53 PM 33.1 °F 22.6 °F 23.0 °F 66% 30.04 in 10.0 mi WNW 16.1 mph 23.0 mph N/A   Overcast
8:53 PM 32.0 °F 24.8 °F 21.9 °F 66% 30.05 in 10.0 mi WNW 8.1 mph 18.4 mph N/A   Overcast
9:53 PM 30.9 °F 22.8 °F 21.0 °F 67% 30.06 in 10.0 mi WNW 9.2 mph 17.3 mph N/A   Partly Cloudy
10:53 PM 30.0 °F 26.5 °F 21.9 °F 72% 30.07 in 10.0 mi Variable 3.5 mph - N/A   Clear
11:53 PM 30.0 °F 24.1 °F 21.9 °F 72% 30.07 in 10.0 mi WNW 5.8 mph - N/A   Clear